CAL902 RKSI-ZSSS

Flight info

Callsign CAL902
Flight time 1h 30m
Altitude 37000
Route BOPTA2Y BOPTA Z51 BEDES Y711 PONIK A593 LAMEN/K0906F370 A593 AKARA/K0904S1130 A593 PUD PUD61A
Aircraft B77W/H-SDE1E2E3FGHIJ2J3J4J5M1RWXY/LB1D1

Departure

Time 2026-04-30 20:30
Airport Incheon International Airport (RKSI)

Arrival

Time 2026-04-30 22:00
Airport Shanghai Hongqiao International Airport (ZSSS)
Time Latitude Longitude Altitude Speed Heading
2026-04-30 19:55 37.46727 126.42883 38 ft 0 kts 51°
2026-04-30 20:17 37.46723 126.42876 38 ft 4 kts 51°
2026-04-30 20:18 37.46706 126.42849 38 ft 4 kts 52°
2026-04-30 20:18 37.46691 126.42825 38 ft 4 kts 55°
2026-04-30 20:18 37.46684 126.42799 35 ft 4 kts 115°
2026-04-30 20:18 37.46701 126.42774 35 ft 4 kts 143°
2026-04-30 20:19 37.46712 126.42763 35 ft 1 kts 143°
2026-04-30 20:19 37.46714 126.42761 35 ft 0 kts 143°
2026-04-30 20:23 37.46699 126.42776 38 ft 6 kts 143°
2026-04-30 20:23 37.46653 126.42819 38 ft 10 kts 143°
2026-04-30 20:23 37.46588 126.42879 38 ft 13 kts 144°
2026-04-30 20:24 37.46512 126.42948 38 ft 14 kts 145°
2026-04-30 20:24 37.46440 126.42943 37 ft 13 kts 220°
2026-04-30 20:24 37.46373 126.42835 38 ft 18 kts 236°
2026-04-30 20:24 37.46295 126.42729 38 ft 14 kts 194°
2026-04-30 20:25 37.46077 126.42895 38 ft 24 kts 144°
2026-04-30 20:25 37.45981 126.42982 38 ft 27 kts 145°
2026-04-30 20:26 37.45628 126.43296 38 ft 33 kts 144°
2026-04-30 20:26 37.45271 126.43615 38 ft 30 kts 144°
2026-04-30 20:26 37.45100 126.43767 38 ft 30 kts 145°
2026-04-30 20:27 37.44759 126.44070 37 ft 30 kts 145°
2026-04-30 20:27 37.44469 126.44316 37 ft 14 kts 169°
2026-04-30 20:28 37.44361 126.44164 37 ft 8 kts 283°
2026-04-30 20:28 37.44405 126.44114 37 ft 0 kts 329°
2026-04-30 20:29 37.45041 126.43554 38 ft 131 kts 324°
2026-04-30 20:30 37.47922 126.40936 1875 ft 176 kts 323°
2026-04-30 20:30 37.50383 126.36439 3073 ft 246 kts 279°
2026-04-30 20:31 37.50551 126.29732 5654 ft 260 kts 273°
2026-04-30 20:32 37.50717 126.22736 8159 ft 274 kts 273°
2026-04-30 20:32 37.49627 126.18184 9613 ft 290 kts 225°
2026-04-30 20:33 37.47926 126.16805 10365 ft 295 kts 203°
2026-04-30 20:33 37.43752 126.14943 10903 ft 343 kts 193°
2026-04-30 20:33 37.41279 126.14888 11091 ft 372 kts 167°
2026-04-30 20:34 37.37073 126.18750 12530 ft 389 kts 128°
2026-04-30 20:34 37.33551 126.24069 14329 ft 404 kts 129°
2026-04-30 20:35 37.31697 126.26744 15355 ft 407 kts 130°
2026-04-30 20:35 37.29828 126.29414 16367 ft 409 kts 130°
2026-04-30 20:35 37.26012 126.34854 18251 ft 420 kts 130°
2026-04-30 20:36 37.24070 126.37623 19054 ft 424 kts 130°
2026-04-30 20:36 37.22107 126.40412 19882 ft 427 kts 131°
2026-04-30 20:36 37.17383 126.45078 21426 ft 440 kts 149°
2026-04-30 20:37 37.14586 126.46701 22216 ft 446 kts 158°
2026-04-30 20:37 37.11648 126.48018 22960 ft 451 kts 159°
2026-04-30 20:37 37.08676 126.49353 23632 ft 457 kts 158°
2026-04-30 20:37 37.05681 126.50748 24239 ft 460 kts 158°
2026-04-30 20:38 37.02647 126.52089 24889 ft 464 kts 162°
2026-04-30 20:38 36.99562 126.53132 25512 ft 467 kts 164°
2026-04-30 20:38 36.96351 126.54146 26099 ft 471 kts 164°
2026-04-30 20:39 36.89994 126.56190 27214 ft 479 kts 163°
2026-04-30 20:39 36.86759 126.57258 27752 ft 483 kts 163°
2026-04-30 20:39 36.83496 126.58332 28251 ft 487 kts 163°
2026-04-30 20:40 36.76875 126.60498 29175 ft 495 kts 164°
2026-04-30 20:40 36.73530 126.61590 29587 ft 499 kts 164°
2026-04-30 20:40 36.70162 126.62704 29961 ft 503 kts 163°
2026-04-30 20:41 36.63376 126.64991 30723 ft 505 kts 164°
2026-04-30 20:41 36.59990 126.66134 31144 ft 505 kts 164°
2026-04-30 20:41 36.56585 126.67281 31559 ft 506 kts 165°
2026-04-30 20:41 36.53186 126.68422 31967 ft 506 kts 165°
2026-04-30 20:42 36.49782 126.69562 32361 ft 506 kts 165°
2026-04-30 20:42 36.46377 126.70701 32768 ft 507 kts 165°
2026-04-30 20:42 36.39597 126.72966 33534 ft 508 kts 166°
2026-04-30 20:43 36.36185 126.74108 33913 ft 508 kts 166°
2026-04-30 20:43 36.32768 126.75257 34227 ft 508 kts 166°
2026-04-30 20:43 36.29361 126.76407 34552 ft 508 kts 166°
2026-04-30 20:44 36.22542 126.78703 35218 ft 507 kts 166°
2026-04-30 20:44 36.19125 126.79781 35540 ft 507 kts 170°
2026-04-30 20:44 36.12126 126.80731 35873 ft 508 kts 181°
2026-04-30 20:45 36.05100 126.80223 35924 ft 504 kts 188°
2026-04-30 20:45 35.98157 126.79361 35927 ft 500 kts 187°
2026-04-30 20:46 35.84361 126.77860 35931 ft 499 kts 187°
2026-04-30 20:47 35.73966 126.76740 35938 ft 501 kts 187°
2026-04-30 20:48 35.63533 126.75618 35943 ft 503 kts 187°
2026-04-30 20:48 35.56674 126.74883 35946 ft 504 kts 187°
2026-04-30 20:49 35.50173 126.74187 35951 ft 505 kts 187°
2026-04-30 20:50 35.39697 126.73074 35950 ft 506 kts 188°
2026-04-30 20:50 35.32691 126.72333 35949 ft 505 kts 188°
2026-04-30 20:51 35.25679 126.71591 35951 ft 505 kts 188°
2026-04-30 20:51 35.15168 126.70482 35949 ft 505 kts 188°
2026-04-30 20:52 35.08201 126.69747 35946 ft 504 kts 188°
2026-04-30 20:53 34.97705 126.68636 35947 ft 504 kts 188°
2026-04-30 20:53 34.90671 126.67891 35960 ft 511 kts 188°
2026-04-30 20:54 34.79938 126.66759 35962 ft 520 kts 188°
2026-04-30 20:55 34.69054 126.65618 35953 ft 524 kts 188°
2026-04-30 20:55 34.61820 126.64861 35951 ft 525 kts 188°
2026-04-30 20:56 34.50947 126.63724 35950 ft 523 kts 189°
2026-04-30 20:57 34.40102 126.62590 35948 ft 520 kts 189°
2026-04-30 20:57 34.32895 126.61811 35951 ft 519 kts 189°
2026-04-30 20:58 34.22092 126.60648 35953 ft 519 kts 189°
2026-04-30 20:58 34.14896 126.59900 35959 ft 519 kts 189°
2026-04-30 20:59 34.04082 126.58777 35963 ft 520 kts 190°
2026-04-30 21:00 33.89688 126.57280 35967 ft 521 kts 190°
2026-04-30 21:01 33.79133 126.54682 35957 ft 509 kts 205°
2026-04-30 21:02 33.69308 126.50304 35961 ft 496 kts 206°
2026-04-30 21:02 33.62858 126.47473 35958 ft 493 kts 206°
2026-04-30 21:03 33.56416 126.44681 35917 ft 491 kts 206°
2026-04-30 21:03 33.49974 126.41897 35959 ft 491 kts 206°
2026-04-30 21:04 33.43550 126.39123 35974 ft 491 kts 206°
2026-04-30 21:04 33.33887 126.34980 35974 ft 492 kts 206°
2026-04-30 21:05 33.27437 126.32225 35972 ft 492 kts 206°
2026-04-30 21:05 33.21029 126.29488 35979 ft 492 kts 207°
2026-04-30 21:06 33.14576 126.26735 35979 ft 491 kts 207°
2026-04-30 21:06 33.08136 126.23991 35983 ft 491 kts 207°
2026-04-30 21:07 33.01704 126.21256 35984 ft 490 kts 207°
2026-04-30 21:07 32.95300 126.18522 35985 ft 489 kts 207°
2026-04-30 21:08 32.88910 126.15775 35989 ft 488 kts 208°
2026-04-30 21:08 32.82534 126.13038 35991 ft 487 kts 208°
2026-04-30 21:09 32.76203 126.10327 35992 ft 486 kts 208°
2026-04-30 21:09 32.69845 126.07609 35996 ft 485 kts 208°
2026-04-30 21:10 32.63493 126.04898 36001 ft 485 kts 208°
2026-04-30 21:10 32.57136 126.02189 36003 ft 485 kts 208°
2026-04-30 21:11 32.50796 125.99490 36004 ft 485 kts 208°
2026-04-30 21:11 32.44447 125.96795 36007 ft 485 kts 208°
2026-04-30 21:12 32.38096 125.94106 36011 ft 484 kts 209°
2026-04-30 21:12 32.31783 125.91437 36010 ft 484 kts 209°
2026-04-30 21:13 32.25441 125.88758 36009 ft 484 kts 209°
2026-04-30 21:13 32.19109 125.86087 36014 ft 483 kts 209°
2026-04-30 21:14 32.12778 125.83420 36016 ft 482 kts 209°
2026-04-30 21:14 32.06471 125.80760 36009 ft 478 kts 211°
2026-04-30 21:15 32.04509 125.79663 36016 ft 462 kts 221°
2026-04-30 21:15 32.02094 125.77327 36036 ft 441 kts 237°
2026-04-30 21:15 31.98940 125.71326 36032 ft 426 kts 258°
2026-04-30 21:16 31.97472 125.64593 36038 ft 427 kts 261°
2026-04-30 21:16 31.96018 125.57788 36035 ft 429 kts 261°
2026-04-30 21:17 31.94531 125.51063 36027 ft 420 kts 261°
2026-04-30 21:17 31.93046 125.44420 36036 ft 420 kts 261°
2026-04-30 21:18 31.91554 125.37773 36040 ft 420 kts 261°
2026-04-30 21:18 31.90057 125.31126 36042 ft 421 kts 261°
2026-04-30 21:19 31.88554 125.24467 36043 ft 421 kts 261°
2026-04-30 21:19 31.87046 125.17804 36046 ft 421 kts 261°
2026-04-30 21:20 31.85534 125.11140 36045 ft 421 kts 261°
2026-04-30 21:20 31.84022 125.04484 36045 ft 421 kts 262°
2026-04-30 21:21 31.82512 124.97829 36045 ft 420 kts 262°
2026-04-30 21:22 31.80367 124.87898 36046 ft 419 kts 263°
2026-04-30 21:23 31.77496 124.74627 36045 ft 418 kts 263°
2026-04-30 21:23 31.75330 124.64699 36053 ft 418 kts 263°
2026-04-30 21:24 31.73883 124.58093 36053 ft 418 kts 263°
2026-04-30 21:24 31.72432 124.51484 36052 ft 417 kts 263°
2026-04-30 21:25 31.70263 124.41638 36049 ft 417 kts 263°
2026-04-30 21:26 31.68078 124.31757 36051 ft 417 kts 264°
2026-04-30 21:27 31.65887 124.21888 36051 ft 416 kts 264°
2026-04-30 21:27 31.64425 124.15325 36063 ft 416 kts 264°
2026-04-30 21:28 31.62228 124.05485 36057 ft 415 kts 264°
2026-04-30 21:29 31.60038 123.95650 36055 ft 414 kts 265°
2026-04-30 21:30 31.56476 123.79335 36067 ft 414 kts 265°
2026-04-30 21:31 31.52880 123.63008 36065 ft 413 kts 265°
2026-04-30 21:32 31.50712 123.53209 36063 ft 414 kts 265°
2026-04-30 21:32 31.49312 123.46688 36064 ft 412 kts 266°
2026-04-30 21:33 31.47493 123.36910 36070 ft 411 kts 267°
2026-04-30 21:34 31.46271 123.30360 36084 ft 412 kts 267°
2026-04-30 21:34 31.44400 123.20519 36079 ft 413 kts 267°
2026-04-30 21:35 31.43144 123.13962 36076 ft 413 kts 267°
2026-04-30 21:35 31.41884 123.07400 36069 ft 413 kts 267°
2026-04-30 21:36 31.40622 123.00843 36068 ft 413 kts 267°
2026-04-30 21:37 31.38083 122.87710 36073 ft 414 kts 266°
2026-04-30 21:37 31.36807 122.81136 36073 ft 414 kts 266°
2026-04-30 21:38 31.35542 122.74610 35978 ft 415 kts 266°
2026-04-30 21:38 31.34906 122.71250 35202 ft 425 kts 267°
2026-04-30 21:38 31.34267 122.67886 34284 ft 426 kts 267°
2026-04-30 21:39 31.33621 122.64499 33301 ft 427 kts 266°
2026-04-30 21:39 31.32970 122.61103 32298 ft 427 kts 266°
2026-04-30 21:39 31.32318 122.57702 31314 ft 429 kts 266°
2026-04-30 21:39 31.31666 122.54316 30585 ft 424 kts 266°
2026-04-30 21:40 31.31019 122.50961 29735 ft 422 kts 266°
2026-04-30 21:40 31.30377 122.47617 28731 ft 422 kts 265°
2026-04-30 21:40 31.29730 122.44262 27688 ft 422 kts 265°
2026-04-30 21:40 31.29092 122.40900 26592 ft 425 kts 265°
2026-04-30 21:41 31.28458 122.37522 25586 ft 426 kts 265°
2026-04-30 21:41 31.27826 122.34145 24699 ft 426 kts 264°
2026-04-30 21:41 31.27192 122.30765 23904 ft 425 kts 264°
2026-04-30 21:41 31.26564 122.27428 23000 ft 424 kts 264°
2026-04-30 21:42 31.25931 122.24076 22073 ft 422 kts 264°
2026-04-30 21:42 31.25299 122.20731 21173 ft 420 kts 263°
2026-04-30 21:42 31.24671 122.17417 20302 ft 418 kts 263°
2026-04-30 21:42 31.24042 122.14099 19456 ft 416 kts 263°
2026-04-30 21:43 31.23417 122.10804 18617 ft 415 kts 263°
2026-04-30 21:43 31.22794 122.07528 17875 ft 411 kts 262°
2026-04-30 21:43 31.22180 122.04320 17525 ft 398 kts 263°
2026-04-30 21:43 31.21576 122.01158 16838 ft 399 kts 263°
2026-04-30 21:44 31.20975 121.97997 16098 ft 399 kts 263°
2026-04-30 21:44 31.20371 121.94832 15364 ft 398 kts 263°
2026-04-30 21:44 31.19772 121.91698 14661 ft 395 kts 263°
2026-04-30 21:44 31.19168 121.88550 13958 ft 394 kts 263°
2026-04-30 21:45 31.18580 121.85481 13204 ft 392 kts 262°
2026-04-30 21:45 31.17983 121.82374 12479 ft 390 kts 262°
2026-04-30 21:45 31.17391 121.79300 12049 ft 386 kts 262°
2026-04-30 21:45 31.16881 121.76266 11848 ft 376 kts 266°
2026-04-30 21:46 31.16532 121.73266 11686 ft 367 kts 268°
2026-04-30 21:46 31.16242 121.70339 11555 ft 360 kts 268°
2026-04-30 21:46 31.15959 121.67444 11205 ft 359 kts 268°
2026-04-30 21:46 31.15668 121.64540 10756 ft 359 kts 268°
2026-04-30 21:47 31.15367 121.61653 10284 ft 357 kts 268°
2026-04-30 21:47 31.15060 121.58793 9805 ft 354 kts 268°
2026-04-30 21:47 31.14752 121.55976 9642 ft 343 kts 267°
2026-04-30 21:47 31.14451 121.53263 9545 ft 330 kts 268°
2026-04-30 21:48 31.14165 121.50687 9455 ft 318 kts 268°
2026-04-30 21:48 31.13887 121.48174 9364 ft 306 kts 268°
2026-04-30 21:48 31.13619 121.45759 9264 ft 294 kts 268°
2026-04-30 21:48 31.13362 121.43435 9193 ft 283 kts 268°
2026-04-30 21:49 31.13113 121.41195 9065 ft 274 kts 268°
2026-04-30 21:49 31.12870 121.39016 8872 ft 267 kts 268°
2026-04-30 21:49 31.12632 121.36874 8596 ft 265 kts 268°
2026-04-30 21:49 31.12555 121.34766 8160 ft 257 kts 285°
2026-04-30 21:50 31.13239 121.32866 7730 ft 254 kts 307°
2026-04-30 21:50 31.14340 121.31267 7412 ft 252 kts 311°
2026-04-30 21:50 31.15459 121.29693 7107 ft 252 kts 311°
2026-04-30 21:50 31.16576 121.28112 6798 ft 252 kts 311°
2026-04-30 21:51 31.17688 121.26532 6488 ft 251 kts 310°
2026-04-30 21:51 31.18785 121.24971 6171 ft 252 kts 310°
2026-04-30 21:51 31.19952 121.23473 5779 ft 248 kts 324°
2026-04-30 21:51 31.21529 121.22679 5354 ft 250 kts 350°
2026-04-30 21:52 31.23260 121.22527 5076 ft 248 kts 357°
2026-04-30 21:52 31.24945 121.22447 5060 ft 235 kts 357°
2026-04-30 21:52 31.26548 121.22371 5041 ft 230 kts 356°
2026-04-30 21:52 31.28156 121.22290 5052 ft 232 kts 356°
2026-04-30 21:53 31.29761 121.22207 5046 ft 230 kts 356°
2026-04-30 21:53 31.31351 121.22122 5042 ft 227 kts 356°
2026-04-30 21:53 31.32932 121.22037 5012 ft 227 kts 356°
2026-04-30 21:53 31.34500 121.21952 4914 ft 223 kts 356°
2026-04-30 21:54 31.36011 121.21956 4750 ft 212 kts 11°
2026-04-30 21:54 31.37284 121.22733 4438 ft 212 kts 44°
2026-04-30 21:54 31.38061 121.24161 4254 ft 207 kts 66°
2026-04-30 21:54 31.38305 121.25790 3832 ft 202 kts 86°
2026-04-30 21:55 31.38312 121.27420 3478 ft 200 kts 88°
2026-04-30 21:55 31.38307 121.29054 3135 ft 202 kts 89°
2026-04-30 21:55 31.38231 121.30688 2760 ft 199 kts 105°
2026-04-30 21:55 31.37499 121.31936 2441 ft 181 kts 149°
2026-04-30 21:56 31.36367 121.32359 2170 ft 168 kts 173°
2026-04-30 21:56 31.35209 121.32582 2023 ft 169 kts 173°
2026-04-30 21:56 31.34056 121.32789 1896 ft 165 kts 176°
2026-04-30 21:56 31.32919 121.32903 1841 ft 164 kts 179°
2026-04-30 21:57 31.31776 121.32976 1807 ft 164 kts 180°
2026-04-30 21:57 31.30652 121.33040 1796 ft 157 kts 180°
2026-04-30 21:57 31.29607 121.33097 1700 ft 150 kts 180°
2026-04-30 21:57 31.28579 121.33152 1480 ft 146 kts 181°
2026-04-30 21:58 31.27572 121.33206 1278 ft 144 kts 181°
2026-04-30 21:58 31.26572 121.33260 1086 ft 144 kts 181°
2026-04-30 21:58 31.25575 121.33314 884 ft 143 kts 180°
2026-04-30 21:58 31.24579 121.33369 682 ft 142 kts 179°
2026-04-30 21:59 31.23592 121.33421 509 ft 141 kts 178°
2026-04-30 21:59 31.22612 121.33475 334 ft 141 kts 177°
2026-04-30 21:59 31.21633 121.33528 170 ft 141 kts 178°
2026-04-30 22:00 31.19853 121.33625 25 ft 93 kts 177°
2026-04-30 22:00 31.19247 121.33540 29 ft 18 kts 224°
2026-04-30 22:00 31.19277 121.33469 27 ft 15 kts 352°
2026-04-30 22:01 31.19418 121.33456 25 ft 23 kts 358°
2026-04-30 22:01 31.19583 121.33451 25 ft 26 kts 358°
2026-04-30 22:01 31.19798 121.33436 29 ft 26 kts 356°
2026-04-30 22:01 31.19879 121.33593 27 ft 31 kts 88°
2026-04-30 22:02 31.19888 121.33847 27 ft 18 kts 87°
2026-04-30 22:02 31.19900 121.33995 26 ft 5 kts 84°
2026-04-30 22:02 31.19908 121.34088 27 ft 18 kts 86°
2026-04-30 22:02 31.19913 121.34254 28 ft 8 kts 87°
2026-04-30 22:03 31.19914 121.34259 24 ft 0 kts 87°
2026-04-30 22:03 31.19898 121.34270 25 ft 6 kts 174°
2026-04-30 22:03 31.19854 121.34265 25 ft 1 kts 175°
2026-04-30 22:03 31.19846 121.34266 25 ft 3 kts 175°
2026-04-30 22:04 31.19834 121.34267 25 ft 0 kts 176°